Weather History for KAPA - June, 2007

Change the Weather History Date:

Thursday, June 7, 2007

  Actual Average Record
Temperature  
Mean Temperature 50 °F -  
Max Temperature 64 °F 75 °F 96 °F (2004)
Min Temperature 37 °F 47 °F 37 °F (2007)
Degree Days  
Heating Degree Days 14    
Moisture  
Dew Point 25 °F    
Average Humidity 40    
Maximum Humidity 79    
Minimum Humidity 21    
Precipitation  
Precipitation 0.00 in - - ()
Sea Level Pressure  
Sea Level Pressure 29.63 in    
Wind  
Wind Speed 12 mph (NW)    
Max Wind Speed 22 mph    
Max Gust Speed 31 mph    
Visibility 10 miles    
Events      
Averages and records for this station are not official NWS values.
T = Trace of Precipitation, MM = Missing Value Source: NWS Daily Summary

Daily Weather History Graph

Daily Weather History Graph

Search for Another Location

Airport or City:

Trip Planner

Search our weather history database for the weather conditions in past years. The results will help you decide how hot, cold, wet, or windy it might be!

Date:

Astronomy

Jun. 07, 2007 Rise Set
Actual Time 5:32 AM MDT 8:24 PM MDT
Civil Twilight 4:59 AM MDT 8:56 PM MDT
Nautical Twilight 4:19 AM MDT 9:37 PM MDT
Astronomical Twilight 3:32 AM MDT 10:24 PM MDT
Moon 12:51 AM MDT (6/7) 12:00 PM MDT (6/7)
Length of Visible Light 15h 56m
Length of Day
14h 52m
Waning Gibbous, 58% of the Moon is Illuminated
Jun 7
Waning Gibbous
Jun 8
Last Quarter
Jun 14
New
Jun 22
First Quarter
Jun 30
Full

Hourly Weather History & Observations

Time (MDT) Temp. Windchill Dew Point Humidity Pressure Visibility Wind Dir Wind Speed Gust Speed Precip Events Conditions
12:53 AM 51.1 °F - 18.0 °F 27% 29.29 in 10.0 mi SW 13.8 mph - N/A   Clear
1:53 AM 50.0 °F - 19.0 °F 29% 29.30 in 10.0 mi SW 12.7 mph - N/A   Clear
2:53 AM 51.1 °F - 18.0 °F 27% 29.30 in 10.0 mi WSW 10.4 mph 24.2 mph N/A   Clear
3:53 AM 50.0 °F - 19.0 °F 29% 29.31 in 10.0 mi West 9.2 mph 18.4 mph N/A   Clear
4:53 AM 50.0 °F - 18.0 °F 28% 29.31 in 10.0 mi WSW 16.1 mph - N/A   Scattered Clouds
5:53 AM 50.0 °F - 18.0 °F 28% 29.33 in 10.0 mi West 21.9 mph 26.5 mph N/A   Scattered Clouds
6:53 AM 52.0 °F - 21.0 °F 30% 29.36 in 10.0 mi NW 4.6 mph - N/A   Scattered Clouds
7:53 AM 55.0 °F - 23.0 °F 29% 29.38 in 10.0 mi NW 8.1 mph - N/A   Scattered Clouds
8:53 AM 57.0 °F - 19.9 °F 24% 29.42 in 10.0 mi West 12.7 mph 25.3 mph N/A   Scattered Clouds
9:53 AM 57.9 °F - 21.0 °F 24% 29.46 in 10.0 mi NW 13.8 mph 21.9 mph N/A   Scattered Clouds
10:53 AM 61.0 °F - 21.0 °F 21% 29.47 in 10.0 mi NW 19.6 mph 26.5 mph N/A   Scattered Clouds
11:53 AM 62.1 °F - 21.9 °F 21% 29.51 in 10.0 mi NW 15.0 mph 25.3 mph N/A   Scattered Clouds
12:53 PM 62.1 °F - 21.0 °F 21% 29.56 in 10.0 mi Variable 5.8 mph 17.3 mph N/A   Scattered Clouds
1:53 PM 62.1 °F - 21.9 °F 21% 29.60 in 10.0 mi Variable 4.6 mph - N/A   Mostly Cloudy
2:53 PM 60.1 °F - 26.1 °F 27% 29.65 in 10.0 mi NNE 11.5 mph 19.6 mph N/A   Mostly Cloudy
3:53 PM 55.0 °F - 30.0 °F 38% 29.75 in 10.0 mi NNE 16.1 mph 23.0 mph N/A   Mostly Cloudy
4:53 PM 51.1 °F - 30.9 °F 46% 29.84 in 8.0 mi NNE 19.6 mph 31.1 mph 0.00 in   Mostly Cloudy
5:53 PM 48.0 °F - 32.0 °F 54% 29.93 in 10.0 mi NE 13.8 mph 25.3 mph N/A   Mostly Cloudy
6:53 PM 44.1 °F 38.6 °F 33.1 °F 65% 29.99 in 10.0 mi NE 10.4 mph 21.9 mph N/A   Mostly Cloudy
7:53 PM 42.1 °F 37.1 °F 32.0 °F 67% 30.03 in 10.0 mi ENE 8.1 mph - N/A   Overcast
8:53 PM 42.1 °F 38.4 °F 32.0 °F 67% 30.06 in 10.0 mi East 5.8 mph - N/A   Overcast
9:53 PM 41.0 °F 38.0 °F 33.1 °F 73% 30.08 in 10.0 mi SE 4.6 mph - N/A   Mostly Cloudy
10:53 PM 39.0 °F 34.8 °F 33.1 °F 79% 30.10 in 10.0 mi South 5.8 mph - N/A   Mostly Cloudy
11:53 PM 37.9 °F 32.1 °F 32.0 °F 79% 30.10 in 10.0 mi South 8.1 mph - N/A   Scattered Clouds